Track ORBCOMM FM 29 now! 10-day predictions ORBCOMM FM 29 is classified as:
1 33062U 08031C 24283.46571203 .00010461 00000-0 14376-2 0 9998 2 33062 48.4385 83.2590 0005527 19.6973 12.5832 14.78671013877011